Theta_e
303 304 304 304 304 304 304 305 305 304 304 304 302 304 297 294 291 304 305 307 303 295 287 290 288 287 290 294 292 293 291 290 294 293 296 294 295 294 294 295 294 294 293 294 293 295 292 294 293 294 295 296 298 301 301 302 301 301 299 301 302 303 295 293 293 297 298 300 302 302 302 301 298 298 300 299 296 297 297 295 298 293 294 292 292 288 295
303 303 303 304 303 304 304 304 304 304 304 302 303 300 296 297 295 298 305 306 301 291 283 285 286 288 291 292 291 295 293 292 293 294 296 294 295 296 295 294 296 294 297 295 293 296 289 294 294 293 296 295 302 300 300 301 300 299 299 297 302 292 296 295 290 290 292 294 297 297 300 300 297 296 298 299 300 300 300 300 301 292 295 294 292 287 295
303 303 303 303 303 303 304 304 304 304 304 305 302 295 298 297 300 298 300 304 300 288 291 287 286 287 287 288 288 290 291 294 295 295 295 299 298 296 294 295 296 295 297 295 296 297 294 292 296 296 296 297 302 300 300 301 301 301 303 305 303 296 296 295 287 284 282 282 283 286 289 294 298 299 298 298 298 299 297 291 294 289 295 296 292 291 302
303 303 303 303 303 303 303 303 304 304 304 304 304 302 298 294 286 295 296 298 298 295 297 293 288 286 287 286 290 293 291 295 297 297 297 300 299 300 297 297 298 295 295 294 294 294 297 295 294 295 295 296 298 300 300 300 301 304 311 303 303 296 300 298 296 292 289 292 294 298 298 296 293 296 297 297 298 299 300 298 293 290 294 293 296 297 303
303 303 303 303 303 303 303 303 303 303 303 304 302 301 298 296 289 290 288 295 295 292 296 292 291 286 292 286 290 288 292 294 296 298 294 298 299 298 297 296 295 294 294 294 294 295 295 297 296 295 296 296 298 300 300 300 302 309 302 305 301 298 295 298 299 298 298 298 297 299 298 296 296 296 297 298 297 298 299 293 292 299 295 290 298 300 300
302 303 302 302 303 303 303 303 303 303 303 304 305 297 299 290 294 295 296 288 288 290 290 295 293 294 293 289 292 290 292 293 290 296 299 300 301 296 296 297 296 295 294 295 291 294 294 295 292 297 297 295 297 296 300 299 304 302 301 304 300 297 292 297 299 298 298 300 300 299 298 297 297 297 298 298 299 298 296 297 299 300 293 291 299 301 299
301 302 302 302 302 303 302 303 303 303 302 303 304 294 298 296 294 295 299 291 294 293 294 296 295 292 295 292 293 291 292 292 292 295 294 298 298 301 289 293 295 296 297 296 294 295 291 290 297 297 295 295 295 295 297 299 302 300 300 301 303 299 295 299 298 297 298 298 298 299 298 297 297 297 297 298 298 298 298 299 300 300 299 300 300 301 301
301 302 302 302 302 302 303 303 303 303 302 305 302 298 293 291 289 289 295 295 295 296 296 296 296 292 295 290 293 292 292 292 295 296 296 291 297 301 295 294 296 297 297 297 296 299 298 297 293 299 297 296 297 296 297 296 300 300 299 299 302 298 292 297 298 295 296 298 299 298 299 298 297 297 298 298 298 299 299 299 300 300 300 300 301 300 300
301 301 301 302 302 302 303 303 303 302 302 302 299 298 300 298 299 296 291 290 295 296 297 296 295 292 295 292 294 295 295 294 296 294 299 297 296 298 296 296 297 297 298 299 301 304 301 300 301 301 299 293 299 296 297 300 297 299 298 299 301 299 294 298 297 291 293 297 297 298 298 299 297 297 298 298 298 296 298 296 300 299 297 299 300 298 298
300 301 301 301 302 302 302 303 303 302 302 301 299 296 302 301 303 301 295 288 294 294 297 298 297 291 296 296 296 295 296 298 298 291 298 299 301 301 302 303 299 297 299 301 304 305 308 307 306 305 304 303 300 300 300 300 298 297 297 300 297 297 297 292 293 289 289 297 298 298 297 296 293 292 298 299 300 300 301 301 301 301 302 297 293 297 303
300 300 301 301 301 302 302 302 302 302 302 298 296 297 300 297 295 296 296 287 293 296 296 296 295 296 300 300 299 300 299 299 299 293 291 301 301 304 305 303 300 297 300 304 307 309 309 310 308 307 305 304 302 303 301 300 300 299 299 299 299 298 298 294 297 288 289 296 297 298 293 285 287 304 308 302 300 300 298 299 301 303 303 300 302 303 305
299 300 300 300 301 301 302 302 302 302 301 302 302 300 303 303 300 299 293 288 289 297 295 295 296 299 299 300 301 300 299 299 300 302 299 301 303 305 305 304 303 294 305 311 311 310 309 307 306 305 304 304 303 302 301 299 299 301 303 299 298 297 296 294 298 290 289 294 296 289 283 287 305 307 309 308 305 303 301 302 303 303 304 304 303 304 304
299 299 300 300 301 301 302 302 302 302 302 303 302 300 305 305 300 296 295 292 290 295 294 296 300 300 299 301 301 301 302 303 303 304 302 304 303 304 304 304 303 304 310 310 311 307 300 298 299 300 300 302 301 301 301 299 299 301 303 302 300 294 293 293 293 293 293 291 290 282 285 300 305 307 308 310 308 305 303 301 303 304 304 304 303 304 305
299 299 299 300 300 300 301 302 302 302 302 302 302 304 306 306 299 297 296 292 291 297 297 298 299 299 300 300 300 301 302 302 304 305 302 304 304 304 305 306 307 310 310 311 308 303 297 297 292 294 295 297 297 296 299 301 301 300 300 301 301 300 297 295 291 296 287 289 290 289 298 297 303 301 305 302 301 302 299 292 298 305 306 305 303 304 306
299 299 299 299 300 300 301 301 302 302 302 302 303 304 306 306 304 300 301 297 291 295 300 292 296 298 299 299 300 299 300 300 300 298 302 307 304 304 306 307 309 309 311 309 301 300 296 295 289 288 291 290 285 288 297 296 300 302 302 302 301 301 295 296 291 290 293 290 288 289 288 285 293 301 306 310 310 309 307 301 297 306 306 306 305 304 305
298 299 299 299 299 300 300 300 301 302 301 302 303 303 306 308 306 305 301 296 293 290 297 304 303 300 298 299 301 300 297 297 300 301 301 302 301 305 307 309 310 312 310 306 302 297 294 290 287 288 286 289 294 292 290 296 295 300 303 301 302 302 301 299 292 291 290 289 287 287 285 288 297 302 306 311 313 310 310 301 294 304 306 306 306 304 306
298 298 299 299 299 299 300 300 300 301 301 301 301 303 304 309 306 302 300 299 298 293 303 305 304 303 299 298 301 300 302 297 301 294 294 297 299 301 305 309 312 311 306 305 301 296 292 290 293 293 293 296 291 289 295 294 293 294 300 301 299 298 296 294 292 289 291 289 287 286 290 289 299 306 308 311 313 313 307 289 290 304 307 308 307 306 306
298 298 298 298 299 299 299 300 300 301 301 302 301 301 304 309 309 306 301 299 296 297 303 304 301 299 298 299 298 302 304 303 303 303 300 302 303 301 302 305 303 306 309 299 299 294 292 291 289 289 289 297 299 297 287 293 290 292 292 294 294 293 293 294 290 291 290 288 289 290 291 300 305 306 309 310 313 309 291 287 297 308 313 310 309 308 309
298 298 298 298 298 299 299 300 300 300 301 301 302 303 305 308 308 307 301 300 300 294 302 306 307 304 306 307 306 304 305 303 303 298 296 295 300 303 304 305 308 298 304 296 299 293 292 291 297 295 291 293 298 290 297 291 290 296 296 292 293 292 292 292 293 291 290 291 289 288 291 305 310 310 310 312 305 291 290 306 310 312 310 313 312 309 312
298 297 298 298 298 299 299 299 300 300 301 301 300 299 303 308 309 306 300 296 298 297 301 304 305 302 305 303 301 298 303 304 304 301 298 294 304 307 302 296 303 304 299 302 292 297 293 290 295 298 293 293 295 301 294 293 301 297 295 298 292 293 289 289 290 291 292 291 289 287 284 298 312 310 308 309 295 296 306 311 311 314 314 312 313 313 314
298 298 298 298 298 299 299 299 300 300 300 301 300 299 299 309 310 308 306 301 296 292 299 307 307 305 305 305 306 305 304 300 302 302 304 304 307 304 292 291 298 299 295 297 290 293 293 291 297 295 301 294 300 298 290 291 295 304 300 298 297 299 290 291 292 296 289 288 286 287 297 304 313 309 296 306 310 312 314 313 311 314 315 314 314 315 317
298 298 298 298 298 299 299 299 299 300 300 301 300 301 300 306 308 308 307 305 297 295 300 306 307 307 309 310 310 309 306 305 307 308 305 301 308 305 303 305 305 304 303 304 301 296 299 300 302 294 293 296 301 292 298 291 289 299 303 303 290 300 296 299 293 300 293 291 296 303 309 312 311 314 312 313 313 314 314 315 315 314 314 317 314 315 318
298 298 298 298 298 298 298 299 299 300 300 300 300 300 298 301 304 308 307 301 304 305 307 307 309 310 311 312 313 312 312 312 311 311 310 305 300 306 306 306 304 308 308 308 302 300 301 298 294 300 296 298 295 293 297 295 291 298 293 301 298 306 307 310 304 299 306 307 307 310 307 310 312 311 313 313 313 314 315 316 315 316 317 317 315 317 318
298 298 298 298 298 298 298 299 299 299 300 300 300 300 299 302 304 305 305 305 304 299 304 309 307 298 303 303 308 313 312 310 311 312 315 313 302 300 308 309 309 311 308 308 310 305 303 298 301 303 293 301 301 294 290 290 291 298 297 298 301 306 307 303 297 304 299 292 306 307 306 310 310 312 313 314 313 313 315 316 316 315 316 317 318 318 318
298 298 298 298 298 298 298 299 299 299 299 300 300 301 303 303 307 306 303 295 297 297 293 298 300 305 307 310 310 309 310 312 313 314 313 314 311 306 304 308 310 307 308 310 312 308 303 298 300 298 292 303 301 292 300 295 294 302 293 296 300 302 307 301 301 302 298 295 306 308 310 311 312 311 311 310 311 312 314 315 316 316 317 317 318 319 317
298 299 298 298 297 298 298 299 299 299 299 299 300 300 300 301 306 307 305 304 303 302 295 294 301 308 309 307 305 306 309 310 311 312 313 312 312 313 311 313 313 315 311 311 310 303 300 299 298 297 296 294 307 296 294 303 301 304 298 298 303 304 304 294 302 299 302 304 307 308 308 309 310 311 312 313 313 313 313 313 315 316 315 315 316 319 318
298 299 298 298 298 298 298 298 299 299 299 299 300 301 302 304 308 306 303 305 301 296 299 295 300 304 307 305 308 309 309 309 311 310 310 311 311 312 312 312 310 311 310 310 311 303 301 299 298 297 300 298 302 304 304 302 301 296 297 304 307 303 299 303 301 295 295 298 304 306 298 296 307 310 311 313 314 313 314 313 313 314 314 315 314 315 317
298 299 298 298 298 298 298 298 299 299 299 299 300 302 305 305 307 310 311 308 303 296 296 296 298 303 308 305 308 308 309 308 308 308 308 308 310 310 311 311 311 310 309 306 300 300 298 296 297 298 297 304 301 298 304 306 304 301 301 304 307 302 305 304 298 297 296 304 306 310 309 307 311 311 312 313 314 313 313 312 312 314 315 316 315 314 313
298 298 298 298 298 298 298 298 298 299 299 299 301 302 305 308 310 311 309 310 307 302 300 300 304 303 296 302 307 307 308 309 309 308 307 307 307 310 310 310 310 311 310 306 301 301 300 300 300 300 300 309 303 298 301 294 295 293 300 306 307 310 310 307 307 306 308 309 309 309 309 306 311 311 312 312 314 314 313 313 314 315 315 315 315 315 313
299 298 298 298 298 298 298 298 298 299 299 300 300 301 299 302 310 309 309 308 307 305 297 295 292 295 307 305 305 306 306 306 307 308 307 306 307 307 307 307 309 309 310 302 301 297 300 300 298 307 310 312 303 298 295 297 295 298 306 307 308 308 308 309 310 307 307 311 311 309 310 311 311 311 311 312 313 313 313 313 314 314 314 315 314 314 314
299 298 298 298 298 298 298 298 298 298 299 300 300 293 293 292 303 308 306 309 309 304 298 298 295 301 300 306 306 304 304 304 306 306 306 307 306 306 308 308 308 307 300 302 300 300 300 298 298 303 308 308 301 297 298 297 293 296 302 306 307 307 308 309 310 311 310 310 310 309 310 310 311 309 310 311 311 312 313 312 312 310 311 313 314 314 314
298 298 298 298 298 298 298 298 299 299 299 298 296 297 300 301 303 306 304 305 307 303 298 294 294 295 295 299 305 307 304 305 305 305 306 307 305 306 307 305 305 307 302 300 301 300 299 299 297 305 305 306 300 299 301 299 295 297 303 306 307 308 309 309 309 309 309 309 308 307 306 308 309 309 309 311 311 312 312 312 312 313 309 312 314 315 315
298 298 298 298 298 298 298 298 299 299 298 299 301 300 300 301 301 302 303 306 304 301 305 297 291 293 292 298 304 305 304 305 304 305 303 306 303 305 302 307 306 305 306 300 298 296 303 298 298 297 306 308 297 297 299 296 299 306 306 306 307 308 309 309 309 309 309 309 309 306 306 307 308 309 310 310 310 310 310 310 311 311 311 311 311 312 313
298 298 298 298 298 298 298 299 298 299 299 298 296 300 305 303 305 303 306 304 301 303 301 295 291 291 292 303 297 303 304 300 300 302 296 303 305 304 300 303 305 297 301 298 300 299 301 298 298 298 303 297 301 296 292 298 304 304 305 305 308 308 309 308 308 307 308 309 309 309 308 309 309 309 309 309 309 310 310 310 310 309 309 310 311 311 311
298 298 298 297 298 298 298 299 299 299 298 301 301 306 305 301 301 304 305 302 296 294 295 295 295 292 291 292 291 298 304 301 299 300 296 300 304 302 303 297 298 294 298 306 297 297 296 298 304 296 294 303 295 292 293 298 302 304 305 305 307 307 306 305 306 307 308 309 308 309 308 308 307 307 307 307 307 308 308 308 308 308 307 308 309 310 311
298 298 297 298 298 299 300 301 300 300 300 299 301 302 301 302 303 309 308 307 303 299 295 294 294 292 293 289 290 296 304 299 302 302 301 296 299 302 301 298 293 297 303 297 295 300 294 304 297 292 297 294 291 295 298 302 303 305 305 304 306 306 306 306 307 308 308 309 309 308 308 307 307 307 307 307 307 307 307 307 307 308 307 307 307 308 308
298 298 298 298 299 301 299 299 304 304 302 302 301 302 300 301 307 309 307 304 306 308 299 294 293 294 295 293 295 296 301 293 300 297 299 295 293 296 296 294 292 293 293 293 293 293 299 304 296 291 292 291 293 301 302 302 303 303 303 306 307 308 308 308 308 308 307 307 307 306 307 306 306 307 306 306 306 307 307 305 307 307 306 306 307 306 307
298 298 297 297 298 293 292 295 301 302 301 302 301 300 303 301 296 297 298 296 301 303 298 299 291 297 300 297 291 302 300 295 300 294 295 297 293 293 294 292 292 291 288 292 296 301 295 293 291 291 291 299 300 299 300 302 302 304 306 307 308 308 308 308 307 306 305 303 303 304 304 305 305 305 305 305 306 305 306 307 307 308 307 306 307 307 307
296 298 298 298 295 292 293 300 304 303 302 303 304 298 295 297 294 291 293 296 296 294 298 296 293 298 297 296 297 305 300 295 294 296 292 298 293 290 293 289 291 291 289 289 294 300 290 292 291 291 290 296 297 301 303 302 302 305 307 308 308 308 308 308 307 307 305 304 306 306 305 303 303 304 305 305 306 306 306 306 306 306 307 307 306 306 306
297 294 292 291 292 294 300 303 303 302 302 297 298 294 290 294 289 287 294 291 291 293 297 292 299 298 300 297 296 295 305 299 292 292 294 295 300 292 292 292 293 289 286 287 291 297 289 287 291 289 290 295 298 303 303 303 302 305 307 308 309 309 308 308 307 308 308 307 307 307 307 306 306 305 305 305 304 304 305 305 306 306 306 306 306 306 306
295 294 293 290 293 295 297 300 302 301 297 293 293 291 290 288 291 292 292 290 290 291 298 299 300 298 300 301 299 295 304 306 304 303 297 292 299 297 291 288 293 288 286 286 292 292 291 289 288 288 290 296 299 301 303 303 304 306 307 309 309 308 308 308 308 307 306 306 306 306 306 306 306 306 306 306 306 305 305 305 305 305 305 305 304 305 306
295 293 294 296 296 297 297 297 297 294 293 295 289 285 288 290 292 291 292 288 289 293 298 299 294 297 298 300 299 301 299 306 304 297 294 290 294 291 289 291 292 286 284 291 294 291 290 286 286 288 294 298 300 302 303 305 305 306 307 308 308 308 308 308 306 306 307 306 306 306 306 306 306 306 306 306 306 306 305 305 304 305 305 306 306 306 306
298 298 298 294 293 293 295 290 293 293 286 286 286 283 287 284 287 287 288 292 299 297 297 304 302 304 305 305 301 303 298 305 297 294 293 290 295 293 290 289 288 284 288 295 290 289 287 286 286 291 297 298 299 302 304 306 306 307 307 308 308 308 307 306 306 306 306 306 306 306 306 306 306 306 306 306 305 305 305 305 304 304 305 305 305 305 305
296 295 292 290 288 289 290 281 293 289 287 287 284 281 284 283 287 289 288 290 294 294 300 297 297 296 293 300 297 295 296 299 297 296 295 296 292 289 288 285 286 293 295 289 288 285 287 289 291 295 297 299 300 302 304 305 306 307 307 307 307 307 306 306 306 305 305 306 306 306 306 306 306 306 306 306 305 304 304 304 305 304 305 305 305 305 305
288 287 288 287 285 289 287 281 292 287 282 285 287 285 286 284 287 289 289 295 298 296 300 299 299 297 294 301 298 299 297 293 297 292 289 292 289 290 287 287 291 291 287 285 287 288 287 287 294 297 298 298 300 302 305 306 306 306 306 306 306 305 306 305 305 305 305 305 305 305 305 305 305 305 305 305 306 306 305 304 304 305 305 304 304 304 304
285 284 285 283 280 287 286 283 286 283 287 290 289 290 291 292 292 293 298 300 298 299 297 298 299 298 297 298 293 293 295 296 292 291 293 292 287 286 291 294 292 286 286 286 284 283 286 291 294 297 298 299 301 303 305 306 306 307 306 305 305 305 305 305 305 304 304 304 305 305 305 305 305 305 304 305 305 305 305 305 306 305 306 305 303 303 303
285 287 286 286 283 286 289 284 285 288 291 292 294 294 294 296 297 297 298 300 299 300 300 301 300 299 295 295 294 294 296 295 290 293 294 288 287 290 293 288 284 285 282 282 284 285 289 294 297 299 299 300 302 303 304 305 306 306 306 306 305 305 305 304 305 304 304 304 305 305 304 304 305 305 305 305 305 305 305 305 306 306 305 304 304 304 303
282 288 288 281 280 284 283 286 292 294 295 295 295 296 297 298 296 295 298 300 300 300 298 299 295 296 295 300 298 292 293 294 290 291 292 290 291 288 286 285 284 286 287 285 285 290 293 296 299 299 301 301 302 303 304 305 306 306 306 307 306 306 305 305 304 305 305 304 304 304 304 304 305 304 304 304 304 305 305 306 306 306 305 304 304 304 304
287 285 283 284 287 288 288 291 291 289 293 295 296 296 296 295 295 296 299 300 298 298 300 298 294 294 291 294 293 291 289 293 287 288 291 289 286 282 283 281 283 282 287 289 291 295 296 298 299 300 302 302 303 304 304 305 306 306 306 306 307 307 306 305 304 305 305 305 304 304 304 305 305 305 304 304 303 304 306 306 307 306 306 304 302 302 302
284 284 286 285 285 287 290 292 291 289 292 292 293 294 296 295 295 296 299 298 299 298 299 296 296 292 292 292 289 290 289 292 290 291 288 286 286 287 286 283 285 285 288 293 293 296 298 300 301 301 302 303 303 305 304 305 303 306 307 308 307 307 306 306 305 304 305 304 304 304 305 304 304 304 304 304 304 305 305 306 306 305 306 306 305 304 303
287 285 286 290 286 287 289 285 286 287 288 290 292 294 295 294 294 294 298 298 298 296 294 291 292 291 290 289 288 285 287 293 290 289 288 287 290 288 286 284 287 290 294 298 298 299 300 301 300 300 303 303 304 306 306 306 305 306 307 307 307 306 306 306 305 304 304 305 305 299 304 304 305 305 305 306 305 304 304 304 304 305 306 306 305 305 305
284 282 282 285 288 288 289 290 291 290 292 295 294 294 294 293 296 297 299 297 297 292 290 293 292 290 287 286 288 291 293 290 288 289 287 289 292 288 288 290 293 297 297 297 298 300 299 303 302 302 304 304 304 307 306 306 306 306 307 307 307 306 306 306 305 305 304 304 305 305 305 305 305 305 305 305 305 304 303 303 304 306 306 306 306 306 306
Wind_Speed
22 22 22 22 24 24 23 23 22 21 21 12 8 8 4 3 6 3 4 6 4 3 7 8 6 6 8 9 10 8 5 5 4 3 6 7 8 7 9 11 11 14 13 16 14 14 13 15 11 14 15 13 13 17 19 19 19 17 13 13 12 11 4 12 12 12 12 13 14 17 17 16 15 16 15 11 13 14 10 9 8 8 10 9 7 7 4
23 23 23 22 23 23 23 23 23 22 18 12 9 8 5 4 6 4 2 5 4 4 6 7 6 8 10 10 9 2 3 2 3 4 4 5 5 5 5 5 5 13 12 12 12 14 9 12 11 12 12 10 16 20 18 25 18 16 12 11 13 7 9 11 11 10 11 14 12 15 16 13 12 13 16 13 11 15 12 10 6 6 11 12 9 9 4
22 23 23 24 24 24 24 24 24 22 21 16 7 6 6 6 3 5 3 5 4 5 3 6 9 8 9 9 4 4 2 4 5 5 3 6 3 3 6 4 7 11 13 13 12 13 9 10 10 12 12 8 12 21 17 20 16 17 16 11 12 10 9 10 12 14 15 16 14 15 16 16 10 12 17 18 17 16 13 11 10 8 10 15 9 7 6
23 22 23 23 24 24 23 23 21 21 20 19 9 6 6 3 5 2 4 5 5 7 8 7 6 8 7 6 6 9 4 3 3 4 5 3 4 3 5 8 9 11 15 13 12 11 12 10 10 12 11 10 10 16 19 18 16 15 10 4 14 7 10 11 10 11 11 10 9 9 11 11 12 13 15 18 19 16 13 9 9 10 8 10 11 8 8
23 22 23 23 24 24 23 23 21 21 23 20 9 7 4 3 3 4 4 4 6 7 5 4 3 4 7 5 6 5 6 1 2 1 2 1 6 3 8 9 10 11 13 11 11 11 13 10 13 14 12 11 10 20 19 17 14 12 9 9 9 7 9 12 9 12 11 13 13 12 18 15 16 14 14 15 19 17 14 10 11 8 8 11 9 12 11
23 23 23 23 24 24 24 23 23 23 23 24 9 4 5 3 3 5 2 4 4 6 0 4 7 10 4 4 5 8 9 8 4 2 3 6 5 3 8 12 10 10 12 12 9 13 13 13 9 12 10 12 14 15 18 17 14 12 10 9 7 7 5 12 11 10 6 9 10 19 14 16 16 17 14 14 14 16 15 13 13 10 8 8 10 11 13
22 22 22 23 23 24 24 24 24 24 26 21 5 6 2 1 5 4 7 5 6 7 11 11 7 7 7 2 6 8 9 8 3 4 4 2 2 5 4 11 13 12 12 9 10 11 11 11 11 9 11 13 15 13 17 16 15 15 11 10 6 5 7 11 10 7 7 4 4 4 12 12 14 17 16 15 16 16 16 14 13 12 10 11 8 9 12
22 22 23 23 24 24 23 24 24 24 27 17 5 6 5 5 5 5 8 7 9 8 6 6 2 2 6 4 6 4 6 8 7 7 8 2 7 4 8 11 13 13 11 10 6 3 8 9 7 10 12 12 11 13 12 12 13 13 11 10 8 7 4 7 13 9 8 5 2 5 9 9 12 14 17 17 15 14 14 13 13 13 12 10 8 6 8
22 22 22 22 22 23 23 23 23 23 23 9 8 4 4 3 3 5 8 10 7 10 8 7 3 2 3 3 4 3 9 8 7 5 6 7 5 8 3 3 8 7 10 11 8 7 5 7 8 12 13 9 10 9 11 12 13 13 11 9 10 10 4 8 8 8 11 12 9 9 6 6 8 9 11 14 17 17 15 13 13 13 13 13 11 10 8
21 21 22 22 22 23 24 23 22 21 21 8 7 6 8 6 4 5 6 5 8 8 8 7 4 5 8 8 8 6 7 7 5 2 5 5 5 6 6 6 4 8 6 8 6 3 6 5 3 5 1 9 13 10 9 11 12 11 10 10 9 10 5 5 6 8 7 12 11 11 8 6 9 9 11 12 11 10 12 14 15 14 13 13 11 11 8
21 20 21 21 22 23 23 22 21 21 15 10 8 7 9 8 7 6 4 5 5 9 8 6 8 8 11 10 9 8 8 7 5 3 1 2 4 1 5 2 2 5 2 5 4 4 4 4 1 3 4 6 9 7 13 15 14 12 10 9 8 12 9 7 8 5 6 10 11 9 9 9 7 2 3 11 12 13 13 12 14 15 15 11 10 10 9
20 20 21 21 21 22 22 22 21 20 17 11 10 9 6 7 8 5 4 4 6 9 8 8 10 9 11 12 8 7 7 7 6 5 6 5 5 6 6 5 1 2 4 4 4 4 2 3 4 4 3 6 6 5 12 16 14 10 9 10 9 12 6 5 9 5 6 7 7 8 10 6 7 2 3 0 8 9 11 12 12 14 15 14 14 13 14
20 20 20 21 21 21 21 21 21 21 19 13 10 9 7 6 5 6 6 6 6 9 7 9 9 10 11 12 10 7 6 5 4 1 4 4 5 5 5 4 4 4 4 4 3 5 7 8 7 6 7 7 8 7 10 17 15 14 10 12 9 7 8 5 4 5 5 7 7 8 7 5 3 4 2 3 0 7 8 12 13 13 13 14 14 11 13
20 20 20 20 20 21 21 21 21 20 20 17 10 9 8 7 7 6 6 5 7 7 8 7 11 13 15 13 9 7 4 5 3 2 3 2 4 5 5 4 4 3 3 3 3 7 5 6 5 6 8 8 6 6 4 6 10 14 13 13 10 10 9 5 5 7 7 6 8 8 8 3 4 4 5 7 8 10 11 8 12 14 15 16 15 15 14
18 20 20 20 20 20 21 20 20 21 20 19 10 8 7 6 6 6 6 6 8 12 6 9 12 14 14 11 9 7 4 3 1 4 3 1 2 4 4 4 3 3 3 4 5 6 5 6 6 7 7 7 5 6 7 7 5 6 8 9 11 10 9 8 8 4 5 6 7 7 7 7 7 10 5 8 5 6 11 9 10 12 15 15 17 17 16
19 19 19 19 20 20 21 20 20 20 20 20 11 7 6 5 7 6 6 5 7 7 8 10 11 11 11 8 9 8 5 2 4 2 2 4 3 4 5 4 2 2 2 3 6 6 5 5 5 8 7 7 9 7 7 7 6 6 7 7 9 10 10 9 8 5 6 7 8 7 8 6 5 6 9 8 4 5 4 7 10 10 16 18 17 18 16
18 19 19 20 19 20 20 20 20 20 19 20 12 9 7 6 6 7 8 5 5 8 12 10 11 10 8 7 7 7 7 3 6 2 1 4 2 3 4 3 2 3 2 4 4 6 6 6 8 8 8 8 8 6 8 7 8 9 9 8 8 8 7 6 8 8 7 7 7 7 4 4 7 10 9 9 5 6 6 4 5 7 16 16 17 17 15
18 18 19 19 19 19 20 20 20 19 19 19 13 9 8 4 5 8 6 6 8 8 7 12 12 9 9 8 8 7 6 4 2 3 3 3 2 2 3 4 4 2 3 2 5 6 6 6 8 7 5 2 4 6 7 8 7 7 10 10 10 8 6 6 9 8 8 9 7 5 3 4 7 9 10 9 7 6 4 5 1 4 1 8 13 14 14
18 18 18 19 19 19 19 19 19 19 19 19 14 10 6 8 6 5 7 7 7 8 12 14 8 7 6 5 6 6 4 5 6 4 3 1 3 5 6 2 3 1 1 2 6 2 6 5 3 5 5 6 6 6 6 7 7 7 9 10 9 8 4 6 7 8 9 8 9 7 4 3 3 8 11 10 8 6 4 3 6 3 1 4 8 12 13
18 18 18 18 19 19 19 19 19 19 19 19 14 9 11 9 1 4 7 7 7 10 14 10 6 10 9 8 7 5 6 4 7 7 4 3 5 6 4 5 9 7 3 4 0 2 1 5 4 4 6 8 6 2 3 5 4 6 7 8 7 8 6 8 8 5 6 5 7 6 9 3 8 12 7 6 6 1 3 3 1 2 2 3 6 7 10
18 18 18 18 19 19 19 19 19 18 18 18 16 10 10 6 4 4 3 7 8 9 7 5 12 13 11 8 7 8 7 7 6 7 7 7 6 4 2 2 4 6 1 0 0 3 0 2 6 3 4 3 3 3 4 4 7 5 6 8 4 2 7 6 6 8 7 7 7 4 3 3 7 8 2 3 3 4 4 5 2 2 1 3 4 5 6
18 18 18 18 19 19 19 19 18 18 18 18 18 10 8 7 8 7 7 5 7 8 9 17 15 15 15 12 9 7 8 9 9 7 7 5 5 5 1 2 5 5 3 3 4 2 2 1 4 2 3 0 6 5 2 4 5 7 3 1 4 3 4 4 2 4 5 2 2 5 1 4 3 2 6 5 5 5 4 4 4 1 3 1 3 5 7
17 18 18 18 19 19 19 19 19 18 18 18 15 8 10 10 8 9 8 9 9 11 13 15 13 13 14 14 12 7 6 5 6 6 6 5 4 3 5 5 4 5 3 2 3 3 2 4 4 3 2 4 2 5 5 5 3 6 4 7 1 2 4 1 6 2 7 4 3 5 3 4 5 3 4 4 4 4 3 4 2 4 3 1 1 5 7
17 18 18 18 18 18 19 19 19 18 18 17 14 10 10 9 10 9 8 8 9 9 9 7 7 2 6 5 3 5 5 5 5 5 3 4 3 3 2 6 5 3 3 4 4 5 4 1 7 3 2 1 4 1 3 5 3 1 5 3 4 5 4 4 5 2 2 2 4 6 4 4 5 2 3 2 2 3 3 3 4 3 2 2 1 5 7
17 17 18 18 18 18 19 19 18 19 18 18 16 12 11 10 8 7 8 6 5 5 5 6 2 6 6 4 4 1 1 3 2 4 4 6 7 5 5 3 3 4 5 5 3 5 1 3 4 2 3 4 2 3 1 3 3 1 4 4 3 6 2 6 7 8 5 4 3 2 2 1 2 4 4 4 5 4 3 3 4 3 3 1 1 3 7
17 18 17 18 19 19 19 19 19 19 19 19 17 12 10 10 9 8 7 7 8 6 6 5 6 9 6 6 4 4 0 4 4 4 6 7 6 6 7 5 3 1 5 4 4 3 3 3 1 3 5 2 8 2 1 4 2 3 5 1 5 2 3 3 1 6 4 7 6 6 5 4 2 2 4 2 2 5 4 2 2 4 4 3 3 3 6
18 18 18 17 18 18 19 19 19 19 20 20 14 11 11 10 8 7 7 7 9 4 4 5 7 10 9 10 5 5 5 4 4 4 5 6 7 6 5 5 5 4 4 4 3 3 3 3 3 4 5 1 4 4 1 2 5 3 3 5 7 6 7 3 5 4 5 1 4 5 5 0 1 4 3 4 2 1 3 3 3 2 4 5 5 5 5
18 18 18 18 19 19 19 19 19 20 20 22 16 12 11 10 8 7 6 6 6 6 8 9 10 12 13 11 6 7 3 4 4 4 4 4 4 5 5 5 5 5 3 3 2 3 3 4 4 2 3 3 5 3 4 3 2 5 6 1 3 5 6 5 2 4 2 3 1 3 4 1 2 5 2 1 3 2 2 2 2 2 2 4 5 7 7
19 19 19 18 19 20 19 19 19 18 21 20 13 12 11 8 6 1 3 4 4 6 7 9 11 10 5 4 5 6 3 3 3 5 3 3 3 2 5 4 5 4 4 3 2 4 4 3 1 4 2 5 4 5 1 3 3 3 2 3 0 5 2 7 4 3 1 2 5 3 3 2 2 3 3 2 1 3 3 2 1 1 3 4 3 5 6
19 19 20 20 20 20 20 19 19 18 19 13 10 8 6 5 2 1 3 2 4 5 5 6 6 3 7 6 5 6 6 2 1 1 4 3 2 2 4 3 4 5 4 3 3 4 2 2 1 2 2 1 2 2 3 4 3 1 4 2 3 1 2 2 3 4 3 3 3 2 1 3 1 0 0 2 2 3 3 1 1 1 3 3 4 4 4
20 20 20 21 21 20 20 19 19 18 17 9 7 4 4 5 5 3 3 4 4 6 5 5 8 8 7 4 4 5 6 3 1 1 3 2 2 5 3 3 3 3 3 3 3 2 1 3 1 1 1 2 2 2 2 4 1 4 11 2 0 1 2 2 2 1 2 2 2 2 1 1 0 3 3 2 2 1 1 1 2 6 9 1 3 3 4
20 20 20 21 22 21 21 21 18 16 11 9 8 6 6 5 4 4 8 7 7 7 5 7 5 4 3 3 3 3 4 4 3 4 5 4 3 2 3 5 2 1 2 3 1 1 2 1 2 3 3 4 2 4 7 5 4 6 10 3 2 0 1 1 1 0 1 1 3 3 4 3 1 4 3 3 3 2 1 1 1 2 1 2 2 3 3
21 21 21 22 23 22 21 20 20 14 10 14 23 26 25 23 18 15 12 8 7 6 6 5 6 4 3 2 5 4 3 2 3 4 4 3 3 3 3 2 2 3 4 3 3 3 1 1 1 3 3 3 2 3 5 5 3 4 2 3 1 1 1 2 0 0 0 1 3 4 4 4 4 4 3 1 2 2 1 1 1 1 3 4 4 5 5
22 21 24 24 24 24 23 22 20 21 18 12 10 10 5 2 6 10 8 6 5 6 3 3 3 5 6 3 8 4 4 6 3 4 3 5 0 4 2 5 3 3 3 4 1 2 2 2 4 2 2 3 4 3 4 7 1 2 1 2 3 2 2 2 2 2 1 1 1 2 3 2 1 0 1 1 2 1 0 1 0 2 3 4 6 5 5
22 23 24 25 25 24 25 24 13 7 7 7 8 4 8 6 6 2 8 8 5 3 3 3 3 5 6 3 4 4 3 3 4 2 4 5 2 5 1 3 3 3 3 3 3 3 3 2 3 2 5 3 2 3 4 9 6 4 3 3 4 3 3 3 3 2 2 2 1 1 1 1 2 2 2 2 1 1 1 2 2 2 3 3 4 7 7
22 24 25 24 27 23 14 9 8 6 8 6 2 6 7 5 6 5 7 8 7 5 4 4 4 6 3 4 3 3 2 5 4 2 1 2 4 1 3 3 3 2 1 2 3 3 2 4 1 5 3 4 4 5 5 3 3 1 3 4 4 4 3 3 0 2 2 2 2 2 1 1 2 1 0 0 0 1 1 1 2 4 4 5 7 6 2
22 24 26 25 15 8 7 4 6 5 4 5 6 10 6 2 4 4 6 6 7 6 6 4 6 6 6 4 3 2 3 4 4 5 6 4 1 1 2 3 1 2 2 2 3 1 2 1 3 5 4 3 3 1 4 3 5 5 4 4 4 3 2 2 1 2 2 2 1 2 2 2 0 1 1 1 2 1 1 3 3 4 5 7 5 4 5
23 25 14 9 6 4 4 3 3 4 8 6 2 3 5 5 3 4 3 5 5 6 4 7 9 9 7 6 5 2 4 1 0 4 2 2 2 3 0 2 2 1 3 2 3 3 1 2 3 4 4 5 4 3 2 3 4 4 3 2 4 3 3 2 3 4 2 3 6 4 2 2 3 2 3 2 1 2 3 2 2 2 4 3 3 5 5
22 12 8 5 4 3 2 5 3 4 6 5 5 3 3 3 4 4 3 4 3 6 6 8 10 9 9 8 7 4 6 4 2 4 3 5 2 1 1 3 3 2 3 2 2 1 3 3 3 3 5 6 5 5 1 3 4 3 4 3 4 4 3 4 4 5 4 4 10 7 4 3 4 5 4 4 2 2 3 2 2 2 3 3 3 4 6
6 6 3 4 4 3 7 2 5 6 5 4 3 3 3 3 4 4 4 4 5 5 4 7 9 9 9 9 6 4 4 6 5 2 3 3 2 2 2 2 2 2 3 2 3 3 2 3 2 3 3 3 4 3 2 1 3 4 4 4 5 4 3 3 5 1 3 1 3 2 3 3 4 6 4 2 2 3 1 2 2 2 2 2 0 4 6
6 6 5 4 7 8 8 10 9 5 3 4 4 3 3 4 5 3 3 6 5 3 6 8 6 8 7 7 7 6 5 3 4 3 4 3 3 3 2 2 1 2 3 1 2 1 2 3 2 4 2 5 4 3 1 2 3 5 5 5 4 4 4 4 3 1 4 3 3 2 2 2 2 4 4 2 3 3 2 1 2 2 3 3 3 4 5
7 6 6 9 10 10 10 7 4 3 2 3 3 4 4 3 3 4 4 5 6 4 7 8 7 8 7 8 6 6 3 2 2 2 2 3 2 2 1 1 1 2 2 2 1 2 2 2 4 1 4 4 4 1 1 3 4 5 6 6 5 4 4 5 4 3 3 3 3 4 3 2 3 3 4 2 3 3 2 1 2 2 4 3 3 4 4
16 15 9 7 5 3 2 3 3 2 3 3 3 4 4 5 5 6 5 4 3 4 3 5 3 1 1 2 4 4 1 2 3 3 3 2 2 1 3 1 1 4 1 2 2 2 3 3 3 1 4 5 3 2 2 4 5 5 6 5 5 4 4 3 4 3 3 3 3 3 3 3 3 4 3 2 2 2 1 1 2 3 3 3 4 4 5
7 5 3 2 3 3 2 5 3 3 3 4 5 6 7 7 5 6 4 5 7 7 4 6 7 7 5 6 5 3 3 4 2 2 3 0 1 2 1 3 4 1 1 3 2 3 3 0 2 4 4 3 2 2 3 4 4 5 5 5 4 4 4 3 3 3 2 3 3 3 3 3 3 2 2 2 2 3 3 3 3 4 4 5 5 4 4
4 2 2 2 3 2 2 2 4 4 6 7 5 7 6 8 7 7 9 2 5 8 7 6 4 7 5 5 2 3 3 2 4 3 2 2 3 2 2 1 2 1 2 2 3 2 0 2 4 3 3 3 4 3 4 4 4 5 5 6 5 5 4 3 3 3 2 2 2 2 3 2 3 2 2 2 2 2 3 4 4 5 5 5 5 5 6
2 2 2 4 4 3 4 4 4 6 5 5 7 8 9 10 9 8 2 2 5 2 4 7 6 4 5 4 3 2 4 3 3 3 3 2 3 3 1 1 1 3 2 3 2 3 3 3 3 4 5 3 3 3 4 4 4 4 6 6 5 5 4 3 3 2 2 2 2 3 2 1 2 2 3 3 4 3 3 4 4 5 6 6 6 6 8
2 2 2 3 5 4 3 6 6 5 6 8 9 10 9 3 3 0 1 4 4 0 2 1 4 3 5 3 4 2 2 2 3 2 1 2 3 0 1 2 2 2 2 3 2 2 3 3 3 5 4 2 2 3 4 5 5 5 5 5 5 5 4 4 3 4 3 3 3 3 2 1 1 2 3 4 4 4 3 4 5 4 4 4 6 7 7
3 2 2 4 4 4 8 6 7 5 4 6 6 5 5 3 5 6 3 0 1 1 5 3 4 4 5 1 3 4 3 3 3 3 2 2 0 1 1 1 3 2 2 3 5 6 1 4 4 5 3 1 2 4 4 5 5 5 5 5 6 5 3 4 4 4 4 3 2 3 2 2 3 3 3 3 4 4 4 5 5 5 5 5 5 6 7
2 3 3 4 3 3 4 6 7 7 7 7 6 6 7 8 8 3 2 1 3 5 2 4 2 1 4 3 4 4 4 3 3 3 2 2 2 2 2 3 2 4 3 4 3 3 1 4 5 3 1 0 2 3 4 4 5 6 5 5 5 5 4 4 4 4 4 3 3 3 3 3 3 4 4 3 4 5 5 4 5 5 5 7 7 6 6
4 4 3 4 5 6 7 7 6 6 6 6 6 8 8 9 7 4 1 2 3 3 3 3 2 3 3 2 4 3 4 3 4 3 3 5 3 3 3 4 3 4 4 6 3 2 1 3 4 4 2 1 3 4 4 5 5 5 5 5 4 4 4 4 4 4 4 4 4 4 4 3 4 3 4 4 4 4 5 6 5 5 4 5 6 7 7
2 3 4 6 8 5 3 5 6 5 5 7 7 7 6 7 5 5 2 3 3 3 3 4 4 4 4 3 3 4 3 3 4 6 4 4 3 4 4 4 4 6 3 5 0 1 2 3 2 3 3 2 4 4 4 5 5 5 5 5 5 4 4 5 4 4 4 4 4 4 4 4 4 3 3 3 4 5 6 6 6 6 5 4 5 6 6
3 5 5 7 10 11 9 8 7 6 6 5 4 2 3 4 2 1 1 4 4 4 5 4 4 4 4 6 4 3 1 2 4 4 6 5 4 4 3 5 6 5 3 3 4 3 2 3 4 3 3 2 4 5 5 5 5 5 5 5 5 4 5 5 5 4 4 4 5 5 5 4 3 3 3 4 5 5 6 6 6 6 5 5 6 7 7
Wind_Direction
348 347 344 343 344 344 342 341 341 345 341 337 341 315 251 244 272 68 178 149 188 256 270 264 251 252 281 299 285 278 268 250 289 271 186 218 218 237 233 226 202 153 167 159 179 171 169 178 173 162 171 146 201 153 175 188 185 191 174 200 155 27 215 152 184 169 163 195 176 198 218 203 198 204 226 208 200 205 221 211 207 210 216 226 196 211 147
350 347 346 347 345 344 343 342 341 342 347 336 316 291 285 291 283 264 173 176 173 242 282 316 318 308 309 317 313 299 247 275 288 231 199 257 189 227 209 243 193 154 163 166 167 163 163 175 168 167 155 171 189 158 188 191 191 192 168 204 147 191 221 172 170 171 169 191 169 190 205 218 207 202 211 221 209 200 219 242 216 220 223 225 222 208 153
349 348 347 348 346 345 343 343 342 340 343 341 318 293 314 293 245 257 206 180 226 255 288 299 304 314 319 321 321 345 225 236 271 319 278 235 262 193 205 199 167 149 159 170 160 164 170 163 167 156 172 155 176 157 189 186 170 204 173 213 141 218 199 178 184 180 182 184 184 187 189 201 201 213 198 211 219 202 196 219 219 220 208 232 231 219 114
349 349 349 348 346 346 345 344 341 339 341 340 320 308 296 331 318 167 217 205 218 243 253 260 271 295 313 320 347 354 74 158 277 312 273 255 225 273 159 199 170 151 172 168 156 152 172 183 160 177 159 146 183 173 181 184 177 191 101 183 166 224 208 197 192 190 196 184 187 193 199 182 208 203 209 197 217 218 211 211 226 226 201 225 226 230 135
350 350 350 350 347 347 346 345 342 341 339 340 321 295 251 299 280 332 331 298 221 251 253 260 264 282 324 318 358 345 48 25 150 183 281 310 305 142 219 189 176 181 173 153 160 159 166 166 177 174 153 166 160 177 179 182 171 90 120 189 180 227 198 205 221 205 198 194 198 183 190 195 201 205 206 206 202 217 213 206 219 217 213 220 209 201 158
350 351 351 350 350 349 347 346 344 344 341 338 323 322 4 309 20 343 29 307 326 330 164 298 306 305 297 284 321 353 29 39 54 242 240 259 261 230 194 185 170 157 143 176 165 165 163 168 168 156 158 158 160 173 177 185 130 137 176 186 211 197 195 198 222 195 78 357 234 184 185 199 195 206 206 209 206 209 216 209 223 200 215 230 196 208 208
351 350 351 352 351 351 350 349 345 345 340 335 329 2 8 355 320 305 348 309 311 305 296 296 294 311 332 302 347 4 15 38 12 15 336 302 136 259 192 175 174 157 162 166 158 161 156 164 149 146 154 156 156 167 169 183 151 180 173 193 205 219 204 194 218 200 203 143 348 144 192 190 195 202 205 204 207 210 212 215 215 225 222 243 269 219 220
350 350 351 352 351 351 351 351 350 346 341 325 358 30 349 14 339 327 325 293 285 307 305 308 277 333 351 6 19 330 327 40 27 32 357 40 31 340 186 181 173 160 162 153 73 16 139 135 145 146 142 146 169 157 175 157 170 182 180 187 182 238 164 195 190 206 174 167 141 198 217 210 213 201 203 202 208 216 214 218 219 217 232 228 232 230 224
351 351 351 350 350 351 352 354 353 346 344 349 2 354 22 313 277 304 314 321 345 329 330 326 317 118 11 334 332 6 38 41 35 35 354 26 26 4 1 158 166 188 173 121 84 40 21 133 128 135 148 156 156 159 173 169 159 178 177 191 168 218 191 168 207 215 199 172 182 210 213 219 238 225 220 210 202 208 205 215 213 214 215 220 226 210 209
350 352 351 351 351 352 352 354 354 351 340 347 343 339 340 326 309 297 302 302 317 335 341 335 346 23 1 344 9 14 32 54 28 50 345 310 314 19 338 334 238 178 102 79 51 1 2 46 11 68 236 164 151 170 158 165 169 176 174 180 182 198 202 184 194 205 215 199 191 201 195 213 222 226 218 221 222 222 209 211 214 215 214 220 210 220 203
349 350 350 352 351 349 352 355 355 355 349 351 341 325 336 344 327 323 305 296 333 357 347 9 7 13 338 1 358 12 30 40 51 12 123 146 72 54 352 26 182 138 105 11 334 299 292 312 271 178 192 116 142 187 166 170 171 178 173 161 190 190 209 183 189 205 203 196 185 202 216 218 223 70 232 214 220 212 222 211 207 205 210 226 214 219 224
349 349 350 352 351 349 351 354 356 356 352 342 330 312 339 331 318 302 317 327 316 348 3 6 350 326 357 352 354 12 16 23 40 3 45 41 54 28 19 42 197 146 24 316 288 254 226 211 240 175 203 158 138 177 160 165 167 183 173 174 182 188 211 228 164 209 199 181 168 213 219 222 66 196 77 30 236 231 217 226 218 211 204 215 217 213 219
348 348 349 351 351 349 349 352 354 356 354 345 329 318 339 337 306 312 311 311 314 336 343 336 351 7 356 349 1 10 7 26 52 15 50 26 62 61 35 34 47 46 334 314 302 198 189 158 168 168 160 155 154 166 182 166 171 182 186 177 187 187 192 244 212 192 225 188 196 219 228 111 180 75 86 55 205 223 236 234 219 210 210 208 223 218 223
347 348 349 350 350 349 349 349 352 354 354 349 328 319 328 357 340 325 330 332 308 319 315 317 4 0 360 354 352 358 356 38 82 39 93 34 35 49 51 40 43 0 311 316 265 195 186 177 155 169 155 154 136 153 147 155 173 181 191 175 185 187 198 214 227 194 219 208 202 220 93 134 145 175 183 182 186 191 201 214 222 209 213 216 217 216 224
345 346 348 349 349 348 348 349 348 351 352 348 325 314 326 355 343 329 311 304 312 305 329 10 355 354 345 349 0 346 14 11 6 85 86 176 110 43 31 53 36 354 348 295 172 199 192 162 163 160 162 166 160 154 169 173 195 199 197 193 177 190 209 184 246 185 244 217 216 226 217 234 191 221 165 196 213 216 212 226 236 204 216 215 214 217 214
342 344 345 347 347 347 347 347 347 347 351 348 334 331 315 6 329 327 314 311 315 325 9 351 354 344 343 357 2 3 358 359 340 32 79 106 71 115 70 62 30 319 295 273 181 186 186 171 177 173 164 182 154 143 179 161 173 190 222 220 200 193 214 202 205 211 199 249 247 226 235 223 253 162 162 168 159 173 158 216 244 202 208 209 214 213 213
340 341 342 344 346 346 345 346 346 346 348 352 339 329 318 358 333 340 324 299 287 290 294 333 342 336 344 9 4 16 356 3 5 56 215 92 82 89 117 108 164 231 28 350 206 191 171 190 188 185 167 172 170 167 162 178 166 168 180 211 213 204 207 216 205 223 213 226 231 243 216 267 137 129 160 157 142 149 184 223 232 176 191 201 207 212 208
338 338 339 340 344 344 343 345 344 344 345 348 336 322 295 349 348 327 316 307 317 301 317 357 341 351 9 1 345 343 337 332 319 294 313 31 100 96 100 85 305 118 351 216 214 177 179 195 185 197 156 203 67 169 188 163 180 180 174 184 193 197 203 212 216 213 212 209 236 240 226 78 137 157 149 151 157 174 203 224 47 348 278 199 201 211 199
336 337 337 338 340 341 341 342 342 343 344 347 340 316 318 344 332 334 311 303 311 296 310 323 313 304 304 319 315 313 319 330 300 308 354 217 66 1 302 48 32 103 38 49 315 206 190 170 197 206 169 175 190 189 144 173 185 182 182 177 190 190 202 211 224 224 220 205 227 229 245 77 84 142 142 145 150 204 234 82 208 312 272 230 210 203 189
334 335 336 335 336 338 339 339 340 341 342 346 343 323 306 302 349 330 328 316 320 300 297 297 353 335 344 327 352 348 348 303 7 333 29 352 27 310 257 214 166 206 159 197 198 307 286 181 207 157 191 171 187 222 174 201 186 188 190 182 194 177 197 199 200 220 239 227 227 221 233 170 198 138 145 164 223 47 73 170 75 292 27 205 195 215 179
331 333 333 333 333 335 336 337 337 338 339 341 343 323 315 306 348 335 301 300 299 307 294 343 351 324 319 318 320 303 287 296 323 331 350 330 347 295 319 71 293 299 30 66 183 147 207 274 259 127 325 216 104 224 204 179 195 149 187 205 191 101 216 206 201 197 221 208 223 237 24 121 176 188 244 176 39 40 18 352 159 138 183 150 176 189 180
328 330 331 331 331 333 334 334 334 335 336 338 336 318 298 321 321 319 328 304 277 257 273 301 303 290 281 279 275 272 285 292 301 313 314 323 323 341 270 262 27 359 12 315 252 200 151 253 248 75 161 267 173 202 179 187 193 156 178 279 201 221 268 326 283 185 246 307 17 82 245 96 147 49 103 74 68 52 35 2 10 108 126 223 154 168 168
325 327 329 329 329 331 331 331 331 333 333 335 333 322 308 308 309 321 305 293 274 271 268 268 271 271 260 253 250 264 269 265 281 276 274 299 321 311 19 348 73 12 348 330 336 19 197 327 296 161 209 215 185 184 182 235 192 152 204 184 42 100 281 281 288 298 311 289 221 40 90 175 136 96 57 84 100 76 33 19 1 39 20 124 159 150 169
322 324 326 327 326 328 328 327 328 329 330 329 329 313 306 303 302 303 297 287 287 303 295 247 250 333 358 10 133 193 233 246 244 272 279 289 273 324 44 48 10 270 39 11 339 330 341 63 263 339 267 164 291 254 209 191 218 216 233 172 197 160 168 207 232 174 206 257 160 232 223 150 220 167 124 86 144 73 55 65 41 49 23 3 10 167 163
318 320 324 326 325 326 325 324 326 326 327 325 323 305 291 285 278 320 317 317 321 331 307 306 312 4 318 319 298 183 207 313 252 227 228 225 253 301 356 54 334 342 350 342 308 287 285 306 312 290 259 56 288 233 319 252 170 230 235 224 216 154 111 259 244 251 235 264 128 138 128 261 222 221 177 197 173 143 109 70 55 77 71 23 63 153 164
317 318 322 323 323 323 323 323 325 325 323 323 318 306 300 290 298 289 275 263 256 260 293 306 325 329 325 313 320 341 339 240 248 238 229 238 244 266 296 311 279 219 285 290 312 301 322 305 216 220 267 303 273 239 281 324 356 136 246 124 103 175 255 260 65 250 251 252 204 181 162 189 167 207 235 54 126 164 160 158 134 125 131 128 164 197 150
314 316 318 322 321 321 321 321 323 324 322 321 314 298 285 282 278 274 270 292 315 275 237 293 322 312 329 323 306 289 270 232 226 243 245 242 242 232 247 274 286 279 265 268 258 303 279 261 278 312 349 4 296 306 9 196 243 246 247 171 212 231 247 236 237 253 249 286 37 20 264 279 266 128 219 149 123 181 138 159 174 184 157 143 154 149 152
313 312 316 318 319 318 320 320 321 322 322 319 306 290 277 274 269 266 260 255 278 303 310 304 304 313 313 280 274 283 296 291 294 254 240 240 236 257 259 250 268 277 268 277 257 241 245 253 278 138 205 211 266 210 202 314 324 267 258 210 156 248 339 308 276 295 0 53 51 28 2 102 262 44 40 221 196 183 203 165 183 175 162 145 155 156 161
312 311 312 316 315 316 317 318 320 321 322 318 301 292 276 243 240 207 259 260 272 290 293 287 283 271 278 6 320 288 278 260 241 252 252 253 247 253 262 268 264 263 268 281 277 273 270 283 45 324 37 309 316 319 297 231 214 252 118 64 10 34 83 271 353 278 214 38 51 347 72 226 24 25 20 340 2 275 250 264 344 179 177 163 178 165 168
311 311 310 312 314 313 315 315 318 318 320 314 301 287 270 168 166 211 82 288 277 305 299 315 313 318 333 297 280 292 292 294 12 278 232 241 218 234 250 240 239 247 265 265 289 262 284 297 343 335 31 337 286 223 248 276 231 184 81 114 46 245 291 296 328 297 338 30 19 53 355 27 29 182 39 25 14 325 306 272 280 207 185 177 182 170 181
309 310 310 309 311 311 310 313 312 316 311 296 302 279 255 217 111 43 69 257 298 294 289 277 282 293 280 240 251 285 297 319 235 238 255 267 246 242 233 231 230 246 247 233 225 276 320 252 232 165 198 48 326 266 276 260 268 69 303 22 149 124 221 107 71 21 344 342 7 330 278 190 26 248 158 78 110 188 210 22 32 10 8 337 181 176 183
310 308 310 309 308 309 308 305 308 308 297 281 257 268 341 348 353 339 338 319 310 281 271 293 298 295 320 285 236 256 284 337 252 204 205 208 222 228 235 248 286 346 327 286 298 272 243 359 288 269 240 116 188 291 274 272 281 134 219 225 146 130 107 139 199 163 351 351 313 278 225 207 169 356 48 66 59 33 12 45 61 122 193 283 216 187 184
308 308 306 309 307 304 304 300 295 296 289 288 297 296 288 277 270 267 270 277 275 259 277 286 280 302 270 313 307 240 285 238 240 227 198 178 225 196 219 231 198 203 141 259 224 241 84 254 235 242 119 126 241 260 268 268 309 87 138 92 151 140 158 91 43 37 125 44 339 325 12 19 42 59 44 73 76 62 112 254 145 174 192 220 207 197 199
307 308 308 306 305 302 297 296 293 285 274 260 258 246 211 154 247 236 230 223 267 281 269 264 272 271 281 271 256 140 253 279 260 249 187 163 232 241 209 205 187 231 161 259 128 249 205 235 239 235 121 226 237 271 267 273 281 204 205 151 123 165 152 185 203 190 155 79 54 340 352 42 71 146 121 95 95 96 28 71 178 222 208 226 224 199 210
307 306 308 305 300 299 295 288 285 245 237 224 228 97 99 78 358 316 197 194 225 221 212 240 250 278 278 264 264 124 239 264 239 204 287 105 218 262 255 238 163 234 128 289 259 255 231 197 353 266 250 156 190 248 264 269 238 193 199 183 174 188 187 212 197 174 129 124 279 35 70 186 205 210 145 116 121 155 175 177 178 200 203 222 226 227 213
307 308 303 301 299 293 287 253 222 237 221 241 73 68 355 4 262 234 201 234 269 299 272 255 242 251 268 259 255 101 269 253 279 244 242 326 203 226 279 288 235 105 58 236 267 193 234 78 253 255 226 199 231 244 271 357 20 163 243 239 177 216 210 254 188 144 106 69 28 6 327 269 261 71 77 89 43 76 266 245 189 205 208 203 214 226 209
306 302 301 297 285 255 252 245 194 219 4 3 306 289 302 300 233 220 196 223 222 236 265 295 284 264 256 286 322 298 291 264 176 219 157 225 211 84 260 242 252 90 241 213 233 239 86 101 273 277 290 271 270 1 16 322 293 300 253 215 184 202 181 214 179 137 145 165 200 247 248 280 330 334 291 1 15 12 274 244 232 217 219 238 218 202 208
302 299 295 290 282 263 248 221 57 8 322 285 289 248 177 196 206 183 198 219 207 193 227 239 254 264 273 260 258 66 265 213 303 288 173 97 257 190 190 288 61 272 251 223 99 29 359 237 238 256 258 267 323 321 329 342 283 272 287 195 192 191 186 141 161 194 189 219 213 195 218 263 289 318 301 257 236 294 274 289 277 268 272 268 216 209 204
288 277 266 268 279 284 357 28 7 322 303 268 244 247 199 195 221 218 195 200 182 215 220 233 244 244 247 246 247 206 268 323 289 263 255 105 291 108 260 243 133 258 259 239 133 244 242 207 227 235 246 203 209 105 52 282 276 239 239 200 184 190 170 175 177 198 239 329 7 23 353 270 241 225 184 280 298 287 317 328 323 300 272 247 209 208 217
300 299 320 304 270 5 352 27 104 299 248 232 197 239 218 199 214 224 196 205 202 228 204 224 228 241 242 253 258 226 165 245 249 276 312 144 106 287 104 283 92 260 260 247 114 208 273 266 176 238 216 110 84 79 333 349 232 182 194 166 157 169 190 170 196 118 38 322 344 292 168 288 337 306 303 263 287 285 243 312 286 258 250 234 322 217 211
321 317 303 308 336 327 315 313 299 259 247 226 198 210 257 212 206 243 197 212 225 219 198 240 214 224 213 235 236 249 145 246 276 274 279 293 86 269 265 257 64 286 266 249 106 235 222 262 275 259 47 56 26 20 9 194 159 164 170 159 150 154 182 169 203 149 249 241 213 239 295 282 282 279 275 285 285 291 303 276 256 243 225 196 175 207 208
337 312 296 293 290 286 284 265 245 235 234 231 199 213 213 243 204 221 240 236 213 220 198 205 225 227 218 216 220 250 180 203 305 272 261 238 127 269 288 284 156 265 273 70 40 245 252 239 243 225 79 66 60 64 136 145 142 159 156 151 151 157 156 186 209 190 255 289 315 304 296 307 305 292 292 261 244 259 270 236 215 203 217 183 197 201 148
298 279 263 283 298 280 249 252 197 225 201 199 221 220 200 220 212 212 200 232 278 241 177 174 237 135 85 203 217 224 285 116 241 207 233 241 115 236 263 254 244 243 241 55 253 249 242 225 241 89 76 67 48 107 138 137 150 158 153 161 160 166 204 191 218 211 205 267 296 293 285 258 252 274 296 268 235 247 242 232 212 189 185 165 191 155 145
295 299 277 238 265 260 223 241 184 197 231 200 190 212 186 209 201 198 230 209 189 229 189 203 192 211 208 178 242 157 178 191 233 263 252 127 258 212 184 246 224 61 54 243 239 234 240 266 280 32 55 72 88 126 134 145 164 147 156 162 174 171 201 202 206 222 237 255 254 271 276 269 279 283 251 245 201 210 183 173 175 177 171 166 171 166 160
299 262 219 236 245 223 164 257 183 208 216 209 205 216 202 210 215 209 219 182 179 216 182 213 185 199 212 135 234 209 241 204 146 231 233 210 241 231 226 290 36 264 238 248 231 237 111 251 180 153 101 78 96 132 145 166 163 169 164 166 179 183 192 210 211 234 246 248 255 240 238 245 257 240 211 191 193 205 185 170 161 162 172 166 161 166 155
278 288 274 247 251 230 217 229 182 213 222 219 213 221 225 211 218 216 172 144 220 161 212 208 218 221 221 156 243 188 185 218 177 213 229 197 224 229 176 11 294 277 268 253 231 235 214 204 110 91 75 54 96 140 154 169 166 169 163 182 182 186 188 207 208 229 226 239 246 233 227 230 237 210 183 179 184 178 189 168 170 178 170 164 160 152 153
249 234 246 271 278 252 216 239 213 216 217 219 221 218 225 254 295 63 335 245 219 302 20 37 248 239 235 184 207 214 232 205 234 168 214 229 225 136 68 267 250 236 220 243 249 245 236 108 84 77 76 85 134 147 171 168 180 175 179 179 176 192 183 187 185 197 190 223 244 226 181 202 182 171 167 175 170 186 169 166 182 177 175 175 156 152 155
254 269 249 240 232 219 211 229 257 257 260 262 241 240 239 229 226 205 155 88 356 273 237 207 212 190 226 221 296 257 217 193 218 187 204 244 164 249 205 211 244 237 236 230 221 226 208 83 83 79 80 71 165 168 170 175 177 185 189 184 182 186 181 200 185 184 190 209 205 212 167 167 167 164 174 176 177 176 166 182 173 175 160 140 143 147 154
280 296 261 254 270 282 261 249 236 245 234 226 229 238 229 221 227 170 83 198 219 219 231 245 248 233 229 183 215 215 242 188 211 188 171 237 232 194 201 229 224 241 213 235 257 92 83 82 89 93 80 196 167 177 169 180 182 192 194 195 178 184 181 205 185 177 184 194 204 201 195 188 176 168 167 172 190 176 177 178 176 183 169 145 151 158 165
237 232 230 258 269 254 250 280 255 246 234 221 226 226 218 226 211 112 27 260 231 222 203 209 257 266 259 186 211 208 236 198 226 192 195 213 214 228 226 242 212 233 218 198 225 165 178 101 126 135 116 141 181 183 168 171 175 193 187 184 178 175 186 185 171 164 191 182 187 196 192 180 197 176 186 174 189 179 182 179 177 175 181 170 159 164 170
217 260 259 249 260 284 307 234 224 240 227 212 219 216 205 218 192 105 53 290 253 223 211 217 185 220 222 195 238 216 222 216 222 224 217 216 211 226 215 229 224 239 238 116 143 55 84 101 59 49 90 141 179 177 167 163 172 184 179 183 175 174 173 181 160 166 183 177 179 184 194 199 205 192 165 168 171 174 177 177 178 192 181 178 171 185 173
229 223 240 232 234 249 257 285 302 296 307 283 234 133 277 250 192 29 342 263 239 228 217 211 208 207 216 222 211 250 230 203 237 221 220 228 218 220 207 233 238 205 203 180 175 154 164 90 79 33 353 97 160 174 166 156 167 177 177 177 168 175 172 174 170 179 169 173 172 187 193 198 170 194 174 185 168 179 180 183 182 198 189 180 182 189 166